Location: Dana
(41.8364°N, 106.7042°W)
Time: 11:40:37
(UTC+00:00)

Injun/Solrad 3 - Pass Details

Date: 15 May 2026
Orbit: 867 x 989 km, 66.8° (Epoch: 11 June)

Event Time Altitude Azimuth Distance (km) Brightness Sun altitude
Rises 20:40:25 0° 152° (SSE) 3,496 11.0 59.2°
Reaches altitude 10° 20:44:33 10° 124° (ESE) 2,590 10.3 58.7°
Maximum altitude 20:46:54 12° 100° (E) 2,436 10.0 58.3°
Drops below altitude 10° 20:49:16 10° 77° (ENE) 2,631 10.1 58.0°
Sets 20:53:30 0° 50° (NE) 3,612 10.7 57.3°
